Weather History for Moultrie, GA

Change the Weather History Date:

Saturday, October 8, 2011

  Actual Average (KMUL) Record (KMUL)
Temperature  
Mean Temperature 71 °F -  
Max Temperature 78 °F 83 °F 94 °F (1941)
Min Temperature 64 °F 58 °F 39 °F (1991)
Cooling Degree Days 6    
Growing Degree Days 21 (Base 50)    
Moisture  
Dew Point 60 °F    
Average Humidity 70    
Maximum Humidity 88    
Minimum Humidity 47    
Precipitation  
Precipitation 0.00 in - - ()
Sea Level Pressure  
Sea Level Pressure 30.23 in    
Wind  
Wind Speed 8 mph (NE)    
Max Wind Speed 16 mph    
Max Gust Speed 28 mph    
Visibility 10 miles    
Events Rain    
Averages and records for this station are not official NWS values.
T = Trace of Precipitation, MM = Missing Value Source: NWS Daily Summary

Daily Weather History Graph

Daily Weather History Graph

Search for Another Location

Airport:

Trip Planner

Search our weather history database for the weather conditions in past years. The results will help you decide how hot, cold, wet, or windy it might be!

Date:

Astronomy

Oct. 08, 2011 Rise Set
Actual Time 7:33 AM EDT 7:12 PM EDT
Civil Twilight 7:08 AM EDT 7:36 PM EDT
Nautical Twilight 6:40 AM EDT 8:04 PM EDT
Astronomical Twilight 6:12 AM EDT 8:32 PM EDT
Moon 5:13 PM EDT (10/8) 4:30 AM EDT (10/8)
Length of Visible Light 12h 27m
Length of Day
11h 38m
Waxing Gibbous, 90% of the Moon is Illuminated
Oct 8
Waxing Gibbous
Oct 11
Full
Oct 19
Last Quarter
Oct 26
New
Nov 2
First Quarter

Hourly Weather History & Observations

Time (EDT) Temp. Dew Point Humidity Pressure Visibility Wind Dir Wind Speed Gust Speed Precip Events Conditions
12:15 AM 68.0 °F 60.8 °F 78% 30.26 in 10.0 mi ENE 5.8 mph - N/A   Clear
12:35 AM 68.0 °F 60.8 °F 78% 30.26 in 10.0 mi NE 5.8 mph - N/A   Clear
12:55 AM 68.0 °F 59.0 °F 73% 30.26 in 10.0 mi ENE 4.6 mph - N/A   Clear
1:15 AM 68.0 °F 60.8 °F 78% 30.26 in 10.0 mi NE 4.6 mph - N/A   Clear
1:35 AM 66.2 °F 59.0 °F 78% 30.25 in 10.0 mi ENE 5.8 mph - N/A   Clear
1:55 AM 66.2 °F 59.0 °F 78% 30.25 in 10.0 mi ENE 6.9 mph - N/A   Clear
2:15 AM 66.2 °F 59.0 °F 78% 30.24 in 10.0 mi NE 5.8 mph - N/A   Clear
2:35 AM 66.2 °F 59.0 °F 78% 30.24 in 10.0 mi NE 6.9 mph - N/A   Clear
2:55 AM 66.2 °F 59.0 °F 78% 30.24 in 10.0 mi NE 8.1 mph 16.1 mph N/A   Clear
3:15 AM 66.2 °F 59.0 °F 78% 30.23 in 10.0 mi NE 8.1 mph - N/A   Clear
3:35 AM 66.2 °F 59.0 °F 78% 30.23 in 10.0 mi NE 9.2 mph - N/A   Clear
3:55 AM 66.2 °F 59.0 °F 78% 30.23 in 10.0 mi NE 8.1 mph - N/A   Scattered Clouds
4:35 AM 66.2 °F 59.0 °F 78% 30.22 in 10.0 mi NE 6.9 mph - N/A   Scattered Clouds
4:55 AM 64.4 °F 59.0 °F 83% 30.22 in 10.0 mi NE 8.1 mph - N/A   Clear
5:15 AM 64.4 °F 59.0 °F 83% 30.21 in 10.0 mi NE 9.2 mph - N/A   Clear
5:35 AM 64.4 °F 59.0 °F 83% 30.21 in 10.0 mi NE 9.2 mph - N/A   Clear
5:55 AM 64.4 °F 59.0 °F 83% 30.22 in 10.0 mi NE 8.1 mph - N/A   Clear
6:15 AM 64.4 °F 59.0 °F 83% 30.22 in 10.0 mi NE 9.2 mph - N/A   Clear
6:35 AM 64.4 °F 59.0 °F 83% 30.23 in 10.0 mi ENE 6.9 mph - N/A   Clear
6:55 AM 64.4 °F 60.8 °F 88% 30.23 in 10.0 mi NE 8.1 mph - N/A   Clear
7:15 AM 64.4 °F 60.8 °F 88% 30.23 in 10.0 mi NE 9.2 mph - N/A   Clear
7:35 AM 64.4 °F 60.8 °F 88% 30.24 in 10.0 mi NE 8.1 mph - N/A   Clear
7:55 AM 64.4 °F 60.8 °F 88% 30.24 in 7.0 mi NE 6.9 mph - N/A   Clear
8:15 AM 64.4 °F 60.8 °F 88% 30.25 in 10.0 mi NE 10.4 mph - N/A   Clear
9:15 AM 64.4 °F 60.8 °F 88% 30.26 in 10.0 mi NE 8.1 mph - N/A   Clear
9:35 AM 64.4 °F 60.8 °F 88% 30.26 in 10.0 mi NE 8.1 mph - N/A   Clear
9:55 AM 66.2 °F 60.8 °F 83% 30.27 in 10.0 mi NE 8.1 mph - N/A   Clear
10:15 AM 68.0 °F 60.8 °F 78% 30.28 in 10.0 mi NE 8.1 mph - N/A   Clear
10:35 AM 69.8 °F 60.8 °F 73% 30.28 in 10.0 mi NE 8.1 mph 16.1 mph N/A   Clear
10:55 AM 71.6 °F 60.8 °F 69% 30.28 in 10.0 mi ENE 9.2 mph 18.4 mph N/A   Clear
11:15 AM 73.4 °F 60.8 °F 65% 30.28 in 10.0 mi NE 9.2 mph 16.1 mph N/A   Scattered Clouds
11:35 AM 73.4 °F 60.8 °F 65% 30.28 in 10.0 mi ENE 9.2 mph 19.6 mph N/A   Mostly Cloudy
11:55 AM 75.2 °F 60.8 °F 61% 30.27 in 10.0 mi ENE 11.5 mph 19.6 mph N/A   Scattered Clouds
12:15 PM 77.0 °F 60.8 °F 57% 30.27 in 10.0 mi ENE 12.7 mph 17.3 mph N/A   Scattered Clouds
12:35 PM 77.0 °F 60.8 °F 57% 30.26 in 10.0 mi ENE 6.9 mph 18.4 mph N/A   Scattered Clouds
12:55 PM 78.8 °F 60.8 °F 54% 30.26 in 10.0 mi East 12.7 mph 18.4 mph N/A   Scattered Clouds
1:15 PM 77.0 °F 60.8 °F 57% 30.26 in 10.0 mi East 12.7 mph 20.7 mph N/A   Scattered Clouds
1:35 PM 77.0 °F 60.8 °F 57% 30.25 in 10.0 mi East 13.8 mph 19.6 mph N/A   Scattered Clouds
2:35 PM 77.0 °F 60.8 °F 57% 30.21 in 10.0 mi ENE 11.5 mph 19.6 mph N/A   Scattered Clouds
2:55 PM 78.8 °F 60.8 °F 54% 30.20 in 10.0 mi ENE 11.5 mph 20.7 mph N/A   Scattered Clouds
3:35 PM 77.0 °F 60.8 °F 57% 30.19 in 10.0 mi ENE 6.9 mph - N/A   Scattered Clouds
3:55 PM 77.0 °F 60.8 °F 57% 30.19 in 10.0 mi NE 12.7 mph 17.3 mph N/A   Scattered Clouds
4:15 PM 77.0 °F 60.8 °F 57% 30.19 in 10.0 mi NE 9.2 mph - N/A   Mostly Cloudy
4:35 PM 77.0 °F 59.0 °F 54% 30.19 in 10.0 mi ENE 11.5 mph 16.1 mph N/A   Mostly Cloudy
4:55 PM 78.8 °F 59.0 °F 51% 30.18 in 10.0 mi NE 11.5 mph 19.6 mph N/A   Mostly Cloudy
5:15 PM 78.8 °F 59.0 °F 51% 30.18 in 10.0 mi ENE 9.2 mph 18.4 mph N/A   Scattered Clouds
5:35 PM 78.8 °F 57.2 °F 47% 30.19 in 10.0 mi ENE 10.4 mph 19.6 mph N/A   Mostly Cloudy
5:55 PM 77.0 °F 57.2 °F 50% 30.18 in 10.0 mi ENE 11.5 mph - N/A   Scattered Clouds
6:15 PM 77.0 °F 59.0 °F 54% 30.20 in 10.0 mi ENE 16.1 mph 27.6 mph N/A Rain Light Rain
6:35 PM 73.4 °F 60.8 °F 65% 30.20 in 10.0 mi ENE 8.1 mph - N/A   Mostly Cloudy
6:55 PM 73.4 °F 60.8 °F 65% 30.20 in 10.0 mi ENE 5.8 mph - N/A   Mostly Cloudy
7:15 PM 73.4 °F 60.8 °F 65% 30.20 in 10.0 mi ENE 8.1 mph - N/A   Scattered Clouds
7:35 PM 73.4 °F 59.0 °F 61% 30.20 in 10.0 mi ENE 6.9 mph - N/A   Clear
7:55 PM 73.4 °F 59.0 °F 61% 30.19 in 10.0 mi ENE 8.1 mph - N/A   Clear
8:35 PM 73.4 °F 59.0 °F 61% 30.20 in 10.0 mi ENE 6.9 mph - N/A   Scattered Clouds
8:55 PM 73.4 °F 59.0 °F 61% 30.20 in 10.0 mi ENE 5.8 mph - N/A   Clear
9:15 PM 71.6 °F 59.0 °F 64% 30.21 in 10.0 mi ENE 6.9 mph - N/A   Clear
9:35 PM 71.6 °F 59.0 °F 64% 30.22 in 10.0 mi ENE 8.1 mph - N/A   Clear
9:55 PM 71.6 °F 59.0 °F 64% 30.22 in 10.0 mi ENE 6.9 mph - N/A   Clear
10:15 PM 71.6 °F 59.0 °F 64% 30.21 in 10.0 mi NE 8.1 mph 17.3 mph N/A   Clear
10:35 PM 71.6 °F 57.2 °F 60% 30.21 in 10.0 mi NE 8.1 mph - N/A   Clear
10:55 PM 71.6 °F 57.2 °F 60% 30.21 in 10.0 mi NE 8.1 mph - N/A   Clear
11:15 PM 71.6 °F 57.2 °F 60% 30.20 in 10.0 mi NE 13.8 mph 18.4 mph N/A   Clear
11:35 PM 71.6 °F 57.2 °F 60% 30.20 in 10.0 mi ENE 8.1 mph 17.3 mph N/A   Clear
11:55 PM 71.6 °F 57.2 °F 60% 30.19 in 10.0 mi NE 6.9 mph 18.4 mph N/A   Clear